Temperature
22 21 21 21 22 22 23 24 24 24 25 25 24 24 23 22 21 19 18 19 18 18 18 18 18 18 17 17 17 17 17 17 17 17 17 17 17 17 17 17 17 18 18 18 18 18 18 18 18
22 21 22 22 22 23 23 24 24 24 25 25 24 24 23 22 21 19 18 18 18 18 17 18 18 18 17 17 17 17 17 17 17 17 17 17 17 17 17 17 17 17 17 17 17 17 17 18 18
22 22 23 23 24 23 23 24 24 25 25 25 24 23 22 21 20 19 19 18 18 18 17 18 18 17 17 17 17 17 17 17 17 17 17 17 17 17 17 17 17 17 17 17 17 17 17 17 17
22 23 24 24 24 24 24 25 25 25 25 25 24 23 21 21 20 19 19 19 18 18 17 18 18 17 17 17 17 17 17 17 17 17 17 17 17 17 17 17 17 17 17 17 17 17 17 17 17
23 24 24 24 24 25 25 26 25 25 25 24 24 22 21 20 19 19 19 19 18 18 18 18 17 17 17 17 17 17 17 17 17 17 17 17 17 17 17 17 17 17 17 17 17 17 17 17 17
24 25 23 23 24 25 25 26 25 25 24 24 23 22 21 20 19 19 19 19 18 18 18 18 17 17 17 17 17 17 17 17 17 17 17 17 17 17 17 17 17 17 17 17 17 17 17 17 17
24 24 24 24 23 24 25 25 25 25 24 24 24 22 20 20 19 19 19 19 18 18 18 18 18 17 17 17 17 17 17 17 17 17 17 17 17 17 17 17 17 17 17 17 16 17 17 17 17
24 24 24 24 24 24 25 25 25 25 24 24 23 22 21 20 20 19 19 19 19 18 18 18 18 17 17 17 17 17 17 17 17 17 17 16 16 16 16 16 16 16 16 16 16 16 16 16 16
25 24 23 24 24 24 25 25 25 24 24 23 23 22 21 20 20 19 19 19 19 19 19 18 18 17 17 17 17 17 17 17 17 16 16 16 16 16 16 16 16 16 16 16 16 16 16 16 16
25 23 24 25 25 25 25 25 25 25 24 23 22 21 21 20 20 20 19 19 19 19 19 18 18 18 17 17 17 17 16 17 16 16 16 16 16 16 16 16 16 16 16 16 15 16 16 16 16
26 24 25 26 25 25 25 25 25 25 24 23 22 21 21 20 20 20 20 19 19 19 19 18 18 18 18 17 17 17 17 16 16 16 16 16 16 16 16 16 16 16 15 15 15 15 16 16 16
26 26 26 25 25 25 25 25 25 24 24 23 22 22 21 21 20 20 20 19 19 19 19 19 18 18 18 17 17 17 17 16 16 16 16 16 16 16 16 16 16 15 15 15 15 15 15 15 15
26 26 26 25 25 25 25 25 24 24 24 23 22 22 21 21 21 20 20 20 19 19 19 18 18 18 18 17 17 17 17 17 16 16 16 16 16 16 16 16 16 15 15 15 15 15 15 15 15
26 26 25 25 25 25 25 24 24 24 23 23 22 22 21 21 21 20 20 19 19 19 18 18 18 18 18 17 17 17 17 17 16 16 16 16 16 16 16 16 16 15 15 15 15 15 15 15 15
26 25 25 25 25 25 25 24 24 24 23 23 22 22 21 21 20 20 20 19 19 19 18 18 18 18 18 17 17 17 17 16 16 16 16 16 16 16 16 16 16 15 15 15 15 15 15 15 15
26 25 24 25 26 25 24 22 24 24 23 23 22 21 21 20 20 20 19 19 19 19 18 18 18 18 17 17 17 17 16 16 16 16 16 16 16 16 16 16 15 15 15 15 15 15 15 15 15
25 24 24 25 26 26 24 23 24 24 23 23 22 21 21 20 20 20 19 19 19 18 18 18 18 17 17 17 17 16 16 16 16 16 16 16 16 16 16 15 15 15 15 15 15 15 15 15 15
24 25 25 25 25 25 24 23 24 24 23 23 22 22 21 21 20 20 19 19 18 18 18 18 17 17 17 17 17 16 16 16 16 16 16 16 16 16 15 15 15 15 15 15 15 15 15 15 15
26 25 25 25 26 25 24 24 24 24 24 23 23 22 21 21 20 20 19 19 18 18 18 17 17 17 17 17 16 16 16 16 16 16 16 16 15 15 15 15 15 15 15 15 15 15 15 15 15
26 25 25 25 26 25 24 24 24 24 24 23 23 22 22 21 20 19 19 18 18 18 17 17 17 17 17 16 16 16 16 15 15 15 15 16 15 15 15 15 15 15 15 15 15 14 14 15 15
26 25 25 24 25 25 24 23 24 24 24 23 22 22 22 21 20 19 19 18 18 17 17 17 17 17 16 16 16 16 16 15 15 15 15 15 15 15 15 15 15 15 15 15 14 14 14 14 15
25 25 25 24 24 23 24 22 23 23 23 23 22 22 21 21 20 19 19 18 17 17 17 17 17 16 16 16 16 16 15 15 15 15 15 15 15 15 15 15 15 15 15 15 14 14 14 14 14
25 25 25 24 24 23 24 23 23 23 23 22 22 22 21 21 20 19 18 18 17 17 17 17 17 16 16 16 16 15 15 15 15 15 15 15 15 15 15 15 15 15 15 15 14 14 14 14 14
25 25 25 24 24 22 24 24 22 23 23 23 22 22 21 20 20 19 18 18 17 17 17 17 16 16 16 16 16 15 15 15 15 15 15 15 15 15 15 15 15 14 14 14 14 14 14 14 14
25 23 22 22 22 22 25 24 23 23 24 24 23 22 21 20 20 19 18 17 17 17 16 16 16 16 16 16 15 15 15 15 15 15 15 14 14 14 14 14 14 14 14 14 14 14 14 14 14
24 24 22 21 22 23 24 23 23 24 24 23 22 22 21 20 19 19 18 17 17 17 16 16 16 16 16 15 15 15 15 15 15 15 14 14 14 14 14 14 14 14 14 14 14 14 14 14 14
24 24 24 23 23 23 23 23 23 23 23 23 22 21 21 20 19 18 18 17 17 16 16 16 16 15 15 15 15 15 15 15 15 14 14 14 14 14 14 14 14 14 14 14 14 14 14 14 14
24 24 23 22 21 22 22 22 21 22 22 22 22 21 20 20 19 18 18 17 17 16 16 16 16 15 15 15 15 15 15 15 14 14 14 14 14 14 14 14 14 14 14 14 14 14 14 14 14
23 23 23 22 22 21 21 21 22 22 22 22 21 21 20 19 19 18 17 17 16 16 16 16 15 15 15 15 15 15 14 14 14 14 14 14 14 14 14 14 14 14 13 13 14 13 13 13 13
24 23 23 21 21 22 21 20 23 22 22 22 21 21 20 19 18 18 17 17 16 16 16 15 15 15 15 15 15 14 14 14 14 14 14 14 14 14 14 14 13 13 13 13 13 13 13 13 13
Wind_Speed
10 12 8 3 3 1 5 6 7 7 7 8 8 9 12 12 8 7 3 4 7 9 11 12 11 11 11 12 11 11 11 11 11 12 12 13 12 12 12 13 14 13 13 13 13 13 13 12 12
11 7 4 4 2 2 5 6 9 9 6 6 7 10 12 11 10 8 5 5 7 10 11 11 10 11 11 11 11 11 11 11 11 12 12 12 12 12 13 14 15 15 14 14 13 14 13 13 13
12 9 4 2 2 5 5 7 8 8 6 5 7 10 9 7 9 6 5 5 8 10 12 11 11 11 11 11 11 11 11 12 12 12 12 12 12 12 13 14 14 14 13 13 13 14 14 13 13
7 4 3 1 6 8 7 7 6 7 6 6 7 9 9 9 6 7 6 7 9 9 12 12 11 11 11 12 12 12 12 12 12 12 12 12 12 12 13 14 14 14 14 13 14 13 13 13 13
5 3 1 3 7 8 7 7 6 7 6 8 10 11 9 10 10 9 7 7 8 8 11 12 11 11 11 12 12 12 11 11 12 12 12 12 12 13 13 14 14 14 14 13 13 14 14 13 13
3 2 0 3 7 7 6 6 6 8 8 7 8 10 7 8 9 7 7 6 7 8 9 12 12 11 11 11 11 10 10 10 11 11 12 12 13 13 14 14 14 14 14 14 14 14 14 13 13
3 1 1 4 6 6 5 5 6 7 7 6 5 8 7 8 7 6 6 6 6 7 7 9 11 12 11 10 9 9 9 9 10 10 11 12 13 13 13 13 13 13 13 13 13 13 13 12 12
3 1 2 3 5 6 5 5 5 6 7 6 4 6 7 9 7 7 6 6 5 6 6 7 8 10 10 10 9 8 8 7 8 9 9 10 12 12 12 12 13 13 13 13 12 12 11 11 11
2 1 2 3 4 5 4 5 6 5 7 7 8 10 11 11 8 7 6 5 4 5 5 6 6 7 8 9 9 8 6 5 6 7 7 7 8 9 10 13 13 13 13 12 10 9 9 10 10
0 2 3 4 4 5 4 4 5 5 6 8 10 12 12 9 8 7 6 6 5 4 5 5 5 5 6 6 7 5 5 5 4 5 6 6 7 9 10 12 12 11 10 9 8 9 8 7 6
1 1 3 5 4 4 4 4 4 4 5 7 9 11 10 9 7 6 6 7 5 5 5 5 4 5 6 4 4 4 4 3 4 4 6 7 7 7 7 7 7 7 6 5 5 6 6 7 7
2 3 3 4 4 4 3 4 4 5 6 8 10 10 8 7 6 5 5 6 6 5 5 4 4 4 5 5 3 3 3 3 3 4 6 5 4 4 4 3 5 5 4 4 4 4 6 7 8
1 3 4 4 3 3 3 3 3 5 7 8 9 9 7 6 6 6 5 6 6 6 5 4 4 5 5 4 2 4 3 3 4 3 4 6 4 3 4 4 4 5 5 4 4 6 6 7 7
2 3 3 3 3 2 3 2 2 4 6 7 8 7 7 5 6 5 5 5 5 6 6 3 4 5 5 4 3 3 3 3 4 3 4 6 5 4 3 4 4 4 5 5 6 6 5 5 6
3 3 4 4 4 3 2 1 3 6 6 7 7 6 7 6 5 4 5 4 4 5 6 4 4 5 4 5 4 4 3 4 3 3 5 6 6 5 4 4 3 4 6 6 6 6 5 4 5
6 5 4 4 3 3 3 2 4 7 7 6 5 7 6 5 5 5 5 4 4 5 5 5 4 4 4 4 4 3 4 4 3 4 5 5 6 7 5 4 3 5 6 5 3 3 4 4 4
6 5 5 5 5 3 3 1 5 6 7 6 5 6 6 5 5 4 4 4 5 5 5 5 4 4 4 4 4 4 4 4 4 4 4 5 6 7 5 3 3 5 3 2 3 4 3 3 3
4 4 3 4 4 3 3 2 4 6 7 7 6 6 6 6 5 5 5 5 5 5 5 4 4 4 4 4 3 3 3 3 3 3 3 5 5 6 4 3 4 4 3 3 3 3 3 2 2
5 4 3 1 3 2 3 3 4 6 6 6 6 6 6 7 6 6 5 5 5 4 4 4 3 4 4 3 2 2 2 2 2 2 4 5 4 4 3 3 3 3 2 2 2 2 2 1 2
7 5 2 1 2 2 3 4 4 6 6 5 5 6 7 7 7 7 5 5 4 4 3 3 3 3 4 3 2 2 2 2 2 2 3 4 4 3 3 2 2 2 2 2 2 1 1 0 0
6 3 3 3 2 5 5 5 6 8 7 6 3 3 6 7 7 7 6 5 4 4 3 3 3 3 3 3 3 2 2 2 2 1 1 2 3 3 2 2 2 2 2 2 1 1 1 1 1
5 2 3 5 6 4 5 3 5 8 9 8 6 4 5 6 6 6 5 5 4 3 3 3 3 3 3 4 3 3 2 2 1 1 1 1 1 2 2 2 2 2 2 2 1 1 1 1 1
5 5 7 9 8 8 8 5 4 8 9 9 8 6 5 6 6 6 5 5 4 4 2 2 3 2 2 3 4 3 2 1 1 1 2 1 1 1 1 1 1 1 1 2 1 1 1 1 0
6 8 10 10 8 8 8 5 2 4 7 8 8 7 6 7 7 6 5 5 4 4 3 2 3 2 2 2 3 3 2 1 2 2 1 0 0 0 1 1 1 0 1 1 1 1 1 0 1
6 6 4 4 5 4 2 2 1 5 5 6 7 7 7 7 7 6 5 5 4 4 3 3 3 3 2 2 2 3 2 2 2 2 1 1 1 0 1 0 0 0 0 1 1 0 0 1 1
6 7 4 4 4 3 2 2 4 7 7 6 6 6 6 6 6 6 6 5 4 4 4 3 4 3 3 3 2 2 2 1 1 2 1 2 1 1 1 0 1 1 0 0 1 0 1 1 1
6 6 7 7 9 7 2 3 5 6 7 6 6 6 5 5 5 6 6 5 4 4 4 3 4 4 4 3 3 3 2 2 1 1 1 1 1 1 1 2 2 1 1 0 1 0 1 1 0
7 7 5 4 5 5 3 1 3 5 5 5 5 5 5 4 4 5 6 5 4 4 4 4 4 4 4 4 3 2 2 2 2 1 1 1 1 1 1 1 2 1 1 1 1 0 1 1 0
5 6 4 4 5 5 3 1 2 4 4 3 4 4 4 4 3 4 4 4 4 3 3 3 3 3 3 4 3 3 2 3 3 2 1 1 0 0 1 1 1 1 1 1 1 1 1 1 1
4 5 6 4 5 5 4 1 3 4 3 3 4 4 4 3 3 3 4 4 3 3 2 2 2 2 3 3 3 3 3 3 3 2 2 1 1 1 2 2 2 1 1 1 1 2 2 1 1
Wind_Direction
268 252 247 256 259 212 70 70 77 59 63 60 52 62 67 52 51 85 108 75 87 89 86 71 57 53 52 52 57 59 59 61 62 62 61 63 63 62 61 60 65 76 78 78 78 77 76 76 78
278 272 262 239 244 87 78 78 77 67 70 84 70 67 72 64 72 93 100 83 90 89 85 75 65 59 57 57 57 61 62 63 64 64 64 67 67 67 66 65 68 74 77 78 78 78 77 77 77
266 268 264 262 28 69 86 82 88 84 65 69 79 66 56 66 73 92 104 103 92 90 91 84 73 67 64 62 61 64 66 66 66 66 66 69 70 70 70 71 72 75 77 79 79 77 77 75 75
269 260 241 32 58 69 90 98 104 100 75 64 80 78 69 62 76 98 106 98 93 96 98 95 85 76 70 66 66 68 68 68 67 67 67 69 71 72 71 72 71 73 76 78 79 79 78 76 75
247 253 241 84 74 77 81 87 91 90 77 66 78 90 87 81 94 102 101 93 93 93 101 104 98 88 80 74 71 70 70 71 71 70 70 71 71 73 75 74 72 73 76 77 78 80 81 79 75
272 260 326 85 86 78 78 80 80 79 80 84 95 99 96 106 98 102 105 97 98 99 105 114 115 106 95 86 79 75 74 74 77 76 75 76 76 76 77 77 78 78 78 79 79 77 79 78 76
283 315 47 88 96 85 74 74 76 86 79 68 84 99 110 109 111 116 105 102 103 106 112 126 132 125 113 102 94 88 83 81 84 88 84 83 81 79 77 78 81 81 82 83 84 82 80 78 76
307 328 72 79 96 86 85 82 76 80 83 72 60 97 125 128 134 126 110 99 107 116 118 117 126 128 129 123 114 108 101 96 96 100 96 94 90 85 84 82 81 82 82 84 84 86 87 87 84
281 348 55 70 93 101 100 95 86 81 94 91 73 86 116 128 135 126 119 115 99 96 101 104 111 115 121 126 125 132 126 124 122 122 118 106 99 97 91 91 89 86 83 83 83 84 96 98 90
168 46 61 74 82 100 98 93 105 99 95 97 96 101 119 133 135 132 125 109 96 88 86 92 96 105 104 102 118 121 114 122 124 120 124 113 103 100 100 102 100 97 91 85 79 80 97 99 94
102 81 69 75 82 95 97 87 84 95 92 103 115 120 130 135 131 129 119 112 107 96 84 86 86 93 100 98 105 100 103 104 90 97 105 101 107 111 112 116 114 112 106 97 84 80 92 94 89
108 87 75 72 75 84 85 84 73 70 87 102 115 123 129 131 127 122 112 114 111 100 86 82 88 86 90 91 95 96 97 96 81 76 90 101 95 98 103 96 114 109 94 82 84 74 74 70 77
127 118 104 100 101 110 103 95 87 88 95 105 114 121 121 122 125 120 119 114 119 112 97 76 76 80 87 87 77 93 89 92 93 77 85 93 95 95 97 93 89 90 86 75 65 67 62 57 54
136 128 129 139 136 135 124 123 148 124 121 124 125 125 126 111 97 100 93 98 101 109 108 88 79 77 77 93 87 77 90 96 95 81 81 85 92 93 88 81 77 80 81 78 76 75 69 64 61
191 181 168 171 173 167 153 169 180 140 140 133 133 131 121 117 117 110 104 105 108 114 113 103 84 87 79 81 76 79 78 83 81 73 72 82 94 95 83 77 75 79 80 78 78 75 73 75 70
216 211 196 173 180 168 200 209 150 140 140 136 143 135 130 122 121 111 109 108 106 107 108 111 100 94 88 77 72 78 77 75 72 63 60 66 80 91 83 75 74 83 79 78 74 75 66 67 65
221 222 197 165 174 180 207 173 133 143 153 153 157 143 141 139 126 113 108 105 97 96 103 108 103 99 91 86 81 78 82 79 79 67 56 59 59 79 88 82 87 88 80 73 79 80 82 82 81
265 253 213 173 159 185 202 206 156 167 167 164 167 158 152 145 139 127 110 99 92 89 94 89 99 99 90 78 75 71 73 76 79 82 78 71 60 72 85 94 89 90 77 68 69 79 87 103 113
295 285 290 122 137 208 221 216 178 171 171 175 169 163 154 142 132 118 115 108 103 90 89 90 81 95 93 82 79 80 75 71 69 57 69 74 68 73 79 82 84 86 98 111 104 98 102 130 139
279 277 273 149 141 252 222 225 188 166 165 166 168 161 152 143 132 126 124 118 112 103 94 100 98 90 102 104 103 111 115 109 96 56 62 64 67 75 81 83 91 86 88 87 92 102 93 313 255
267 284 319 310 278 245 234 227 200 160 149 146 153 151 142 143 140 141 140 126 129 124 118 108 106 103 104 112 101 89 85 93 92 97 74 56 65 79 91 93 99 121 121 125 145 148 139 252 308
287 339 308 282 270 251 227 244 198 168 158 160 163 162 145 134 133 135 133 135 136 126 121 121 115 113 118 115 107 108 113 117 132 128 124 111 87 82 91 101 108 104 103 129 175 140 145 138 301
296 307 274 267 270 273 251 246 202 171 166 162 160 161 153 140 138 137 137 139 135 121 111 111 114 103 108 125 121 127 112 129 111 94 120 135 128 96 94 100 116 109 125 153 137 98 102 146 183
282 278 261 247 254 257 243 233 199 166 167 157 151 152 154 145 137 133 130 128 126 127 130 121 123 123 110 120 135 136 135 142 115 104 106 131 102 110 134 155 178 130 106 109 105 115 142 213 250
263 281 275 229 219 234 211 213 135 107 101 121 140 147 151 145 143 140 136 139 136 136 146 153 142 137 144 148 147 155 163 174 168 149 155 173 180 176 206 72 133 336 80 110 126 109 181 235 233
254 260 272 290 282 280 225 185 116 99 97 101 124 132 135 136 139 142 146 148 148 152 159 167 160 159 161 168 171 179 171 160 170 173 171 182 184 188 181 192 213 206 128 116 118 140 229 263 212
265 262 279 289 291 281 220 143 128 120 118 114 125 134 136 136 137 145 149 151 155 161 165 175 174 169 171 185 192 191 170 156 167 187 163 161 187 203 177 199 208 171 139 107 69 262 284 303 331
255 282 282 269 286 284 264 207 136 133 123 122 138 143 142 139 143 147 150 154 160 160 167 177 186 179 176 184 193 189 181 176 182 177 169 162 188 196 185 193 200 181 176 171 156 296 294 293 228
233 254 266 277 272 284 292 13 69 117 119 133 139 132 131 134 139 139 141 148 151 149 158 173 183 182 173 185 188 193 184 175 172 170 188 181 165 179 176 213 189 169 203 190 150 218 263 286 266
242 256 266 268 277 284 287 279 98 113 125 134 134 128 122 125 126 121 131 138 147 155 156 167 173 174 178 189 187 188 175 177 175 174 180 200 210 235 210 192 201 179 193 197 176 224 255 265 289
Height
1485 1485 1486 1488 1488 1490 1493 1489 1486 1486 1487 1489 1489 1490 1493 1497 1502 1512 1512 1510 1510 1509 1507 1506 1505 1504 1504 1503 1503 1502 1502 1502 1501 1501 1500 1499 1499 1498 1497 1495 1491 1492 1496 1498 1499 1500 1501 1501 1502
1485 1487 1488 1487 1490 1497 1498 1489 1489 1489 1490 1490 1491 1492 1495 1501 1505 1509 1510 1511 1511 1510 1508 1507 1507 1506 1505 1505 1504 1504 1503 1503 1503 1502 1502 1501 1501 1500 1499 1498 1496 1497 1498 1500 1501 1502 1503 1503 1504
1486 1487 1488 1485 1488 1495 1497 1489 1489 1490 1491 1491 1493 1496 1500 1505 1507 1509 1511 1511 1511 1511 1509 1509 1508 1507 1507 1506 1506 1505 1505 1505 1504 1504 1503 1503 1503 1502 1502 1501 1501 1501 1502 1502 1503 1504 1505 1505 1506
1488 1488 1486 1488 1492 1489 1488 1488 1488 1490 1492 1492 1493 1499 1504 1508 1509 1510 1511 1512 1512 1512 1511 1510 1509 1509 1508 1508 1507 1507 1507 1506 1506 1506 1505 1505 1504 1504 1504 1504 1503 1504 1504 1505 1505 1506 1506 1507 1508
1488 1487 1488 1492 1492 1488 1487 1487 1489 1491 1493 1494 1496 1502 1507 1510 1510 1511 1512 1513 1513 1513 1512 1511 1511 1510 1510 1509 1509 1509 1508 1508 1508 1508 1507 1507 1506 1506 1506 1506 1506 1506 1506 1506 1507 1507 1508 1509 1510
1489 1485 1493 1497 1494 1489 1488 1489 1490 1492 1494 1496 1498 1502 1508 1511 1512 1513 1513 1514 1514 1514 1513 1513 1512 1512 1511 1511 1511 1511 1510 1510 1510 1509 1509 1509 1508 1509 1508 1508 1508 1508 1508 1508 1508 1508 1509 1510 1511
1489 1488 1492 1494 1495 1493 1491 1491 1492 1494 1496 1498 1499 1503 1509 1511 1513 1514 1514 1515 1515 1515 1515 1514 1514 1513 1513 1513 1513 1513 1512 1512 1512 1512 1511 1511 1511 1511 1511 1510 1510 1510 1510 1509 1509 1510 1511 1512 1513
1488 1489 1492 1493 1495 1496 1493 1493 1494 1496 1498 1500 1501 1503 1508 1511 1513 1514 1515 1516 1516 1516 1516 1516 1516 1515 1515 1515 1515 1515 1514 1514 1514 1514 1514 1513 1513 1513 1513 1513 1512 1512 1512 1512 1511 1510 1511 1513 1514
1489 1493 1496 1494 1495 1495 1493 1494 1496 1498 1499 1501 1503 1505 1508 1511 1513 1514 1515 1516 1517 1517 1517 1518 1518 1517 1517 1517 1517 1516 1516 1516 1516 1516 1516 1516 1515 1515 1515 1515 1515 1514 1514 1513 1512 1509 1509 1513 1516
1489 1496 1495 1490 1490 1493 1493 1495 1496 1498 1500 1502 1505 1507 1509 1511 1513 1514 1515 1517 1518 1518 1519 1519 1519 1519 1519 1519 1519 1518 1518 1518 1518 1518 1519 1518 1518 1518 1517 1517 1517 1517 1517 1516 1513 1509 1509 1514 1518
1489 1492 1490 1490 1492 1493 1494 1496 1497 1498 1501 1503 1505 1508 1510 1512 1514 1515 1516 1517 1518 1519 1519 1520 1520 1520 1520 1520 1520 1520 1520 1520 1520 1520 1520 1520 1520 1520 1519 1519 1519 1519 1519 1518 1517 1515 1516 1518 1520
1489 1490 1491 1492 1494 1495 1496 1497 1498 1500 1502 1504 1506 1508 1511 1512 1514 1515 1516 1517 1518 1519 1520 1520 1520 1520 1521 1521 1521 1521 1521 1521 1522 1522 1522 1522 1522 1522 1522 1522 1522 1522 1522 1521 1521 1520 1521 1522 1523
1490 1491 1492 1494 1495 1496 1497 1499 1500 1501 1503 1505 1507 1509 1511 1513 1514 1516 1517 1518 1518 1519 1520 1521 1521 1521 1521 1522 1522 1522 1523 1523 1523 1523 1523 1523 1523 1524 1524 1524 1524 1524 1524 1524 1524 1524 1525 1525 1526
1490 1491 1493 1494 1495 1496 1497 1499 1500 1502 1504 1506 1508 1510 1512 1513 1515 1516 1517 1518 1518 1519 1520 1521 1522 1522 1522 1522 1523 1523 1524 1524 1524 1524 1525 1525 1525 1525 1526 1525 1526 1526 1526 1526 1526 1527 1527 1527 1528
1490 1491 1493 1493 1494 1495 1498 1501 1500 1501 1503 1506 1508 1510 1512 1513 1515 1516 1517 1518 1518 1520 1520 1521 1522 1523 1523 1523 1523 1524 1524 1525 1525 1525 1526 1526 1526 1526 1527 1527 1527 1528 1528 1528 1528 1528 1529 1529 1529
1489 1492 1497 1493 1492 1494 1500 1506 1499 1500 1503 1505 1508 1510 1512 1513 1515 1516 1517 1518 1519 1520 1521 1521 1522 1523 1523 1524 1524 1524 1525 1525 1526 1526 1527 1527 1527 1527 1528 1528 1528 1529 1529 1530 1530 1530 1530 1530 1531
1490 1496 1496 1493 1490 1492 1496 1501 1498 1500 1502 1505 1507 1509 1511 1513 1514 1516 1517 1518 1519 1520 1521 1521 1522 1523 1524 1524 1524 1525 1525 1526 1526 1527 1527 1527 1528 1528 1529 1529 1529 1530 1530 1531 1531 1531 1531 1532 1532
1495 1491 1490 1492 1489 1491 1496 1498 1497 1498 1500 1503 1506 1508 1510 1512 1514 1515 1517 1518 1519 1520 1520 1521 1522 1523 1523 1524 1524 1525 1526 1526 1527 1527 1528 1528 1528 1529 1529 1530 1530 1530 1531 1531 1532 1532 1532 1533 1534
1485 1488 1491 1489 1487 1491 1495 1496 1495 1496 1499 1501 1503 1506 1509 1511 1513 1515 1516 1517 1518 1519 1520 1521 1521 1522 1523 1524 1524 1525 1526 1527 1527 1528 1528 1528 1529 1530 1530 1530 1530 1531 1531 1532 1533 1533 1533 1534 1534
1485 1489 1490 1488 1486 1490 1494 1494 1492 1494 1496 1499 1501 1504 1507 1510 1512 1514 1516 1517 1518 1519 1520 1521 1521 1522 1523 1523 1524 1525 1526 1527 1527 1528 1528 1529 1529 1529 1530 1530 1531 1531 1532 1532 1533 1533 1534 1534 1535
1486 1489 1490 1491 1488 1488 1492 1497 1492 1491 1495 1498 1501 1503 1505 1508 1511 1513 1515 1517 1518 1519 1520 1520 1521 1522 1522 1523 1524 1525 1526 1526 1527 1527 1528 1528 1529 1529 1530 1530 1531 1531 1531 1532 1533 1533 1533 1534 1535
1490 1485 1487 1490 1494 1496 1492 1506 1495 1490 1493 1496 1499 1502 1504 1507 1510 1512 1514 1516 1517 1518 1519 1520 1521 1521 1522 1522 1523 1524 1525 1526 1527 1527 1528 1528 1529 1529 1530 1530 1531 1531 1531 1532 1532 1533 1533 1534 1534
1486 1484 1486 1488 1492 1495 1490 1498 1495 1487 1493 1494 1497 1500 1503 1506 1509 1511 1513 1515 1516 1517 1518 1519 1520 1520 1521 1522 1523 1523 1524 1525 1526 1527 1527 1528 1528 1528 1529 1529 1530 1530 1531 1531 1532 1532 1533 1533 1533
1483 1484 1484 1485 1491 1503 1489 1494 1499 1489 1488 1491 1494 1499 1502 1505 1507 1510 1512 1513 1515 1516 1516 1517 1518 1519 1520 1521 1522 1522 1523 1524 1525 1526 1526 1527 1527 1528 1528 1529 1529 1530 1530 1530 1531 1531 1532 1532 1533
1485 1493 1502 1503 1506 1500 1482 1489 1494 1484 1483 1487 1492 1496 1500 1503 1506 1508 1510 1512 1513 1514 1515 1516 1516 1517 1518 1520 1521 1521 1522 1523 1524 1525 1525 1526 1526 1527 1527 1528 1528 1529 1529 1529 1530 1530 1531 1531 1531
1485 1490 1505 1513 1506 1496 1484 1492 1489 1483 1485 1488 1491 1495 1499 1502 1504 1506 1508 1510 1511 1512 1513 1514 1515 1516 1517 1518 1519 1520 1521 1522 1523 1523 1524 1524 1525 1525 1526 1526 1527 1527 1528 1528 1529 1529 1529 1530 1530
1486 1487 1484 1494 1493 1496 1491 1488 1486 1483 1486 1489 1492 1495 1498 1501 1503 1505 1507 1508 1509 1510 1511 1512 1513 1514 1515 1517 1518 1519 1520 1520 1521 1522 1522 1523 1523 1524 1524 1525 1525 1526 1527 1527 1528 1528 1528 1528 1529
1482 1484 1488 1495 1505 1506 1496 1492 1494 1489 1489 1490 1492 1495 1497 1500 1502 1504 1505 1507 1508 1509 1510 1511 1512 1513 1514 1515 1516 1517 1518 1519 1519 1520 1520 1521 1521 1522 1522 1523 1523 1524 1525 1525 1526 1526 1527 1527 1527
1484 1486 1487 1491 1493 1505 1508 1504 1486 1487 1488 1489 1491 1494 1496 1499 1500 1502 1503 1505 1507 1508 1508 1509 1510 1511 1512 1513 1514 1515 1516 1517 1517 1518 1519 1519 1519 1520 1520 1521 1521 1522 1523 1523 1524 1525 1525 1525 1525
1480 1484 1487 1499 1498 1493 1502 1504 1483 1485 1486 1488 1490 1493 1496 1498 1500 1501 1502 1503 1505 1506 1507 1508 1508 1509 1510 1511 1512 1513 1514 1514 1515 1516 1516 1517 1518 1518 1519 1519 1519 1520 1521 1521 1522 1522 1523 1523 1524